Dalaman, Turkey

8:40 PM +03 on April 29, 2017 (GMT +0300)
Dalaman

Weather History for LTBS - October, 2011

Change the Weather History Date:

Saturday, October 1, 2011

  Actual Average Record
Temperature  
Mean Temperature 73 °F -  
Max Temperature 84 °F 75 °F 86 °F (1999)
Min Temperature 60 °F 55 °F 51 °F (2014)
Cooling Degree Days 8    
Growing Degree Days 23 (Base 50)    
Moisture  
Dew Point 43 °F    
Average Humidity 35    
Maximum Humidity 72    
Minimum Humidity 18    
Precipitation  
Precipitation 0.00 in - - ()
Sea Level Pressure  
Sea Level Pressure 29.94 in    
Wind  
Wind Speed 13 mph ()    
Max Wind Speed 20 mph    
Max Gust Speed -    
Visibility 6.2 miles    
Events      
Averages and records for this station are not official NWS values.
T = Trace of Precipitation, MM = Missing Value Source: Averaged Metar Reports

Daily Weather History Graph

Daily Weather History Graph

Search for Another Location

Airport or City:

Trip Planner

Search our weather history database for the weather conditions in past years. The results will help you decide how hot, cold, wet, or windy it might be!

Date:

Astronomy

Oct. 01, 2011 Rise Set
Actual Time 6:59 AM EEST 6:49 PM EEST
Civil Twilight 6:33 AM EEST 7:14 PM EEST
Nautical Twilight 6:03 AM EEST 7:44 PM EEST
Astronomical Twilight 5:33 AM EEST 8:15 PM EEST
Moon 11:35 AM EEST (10/1) 9:36 PM EEST (10/1)
Length of Visible Light 12h 41m
Length of Day
11h 49m
Waxing Crescent, 21% of the Moon is Illuminated
Oct 1
Waxing Crescent
Oct 4
First Quarter
Oct 12
Full
Oct 20
Last Quarter
Oct 26
New

Hourly Weather History & Observations

Time (EEST) Temp. Dew Point Humidity Pressure Visibility Wind Dir Wind Speed Gust Speed Precip Events Conditions
12:20 AM 73.4 °F 39.2 °F 29% 29.89 in - North 13.8 mph - N/A   Clear
12:50 AM 73.4 °F 39.2 °F 29% 29.89 in - North 18.4 mph - N/A   Clear
1:20 AM 73.4 °F 39.2 °F 29% 29.89 in - North 19.6 mph - N/A   Clear
1:50 AM 73.4 °F 39.2 °F 29% 29.89 in - North 18.4 mph - N/A   Clear
2:20 AM 73.4 °F 39.2 °F 29% 29.92 in - North 17.3 mph - N/A   Clear
2:50 AM 71.6 °F 39.2 °F 31% 29.92 in - North 18.4 mph - N/A   Clear
3:00 AM 72 °F 38 °F 19% 29.92 in 6 mi North 18.4 mph - -  
3:20 AM 71.6 °F 39.2 °F 31% 29.89 in - North 16.1 mph - N/A   Clear
3:50 AM 69.8 °F 39.2 °F 33% 29.89 in - North 16.1 mph - N/A   Clear
4:20 AM 69.8 °F 39.2 °F 33% 29.89 in - North 16.1 mph - N/A   Clear
4:50 AM 69.8 °F 39.2 °F 33% 29.89 in - North 15.0 mph - N/A   Clear
5:20 AM 69.8 °F 39.2 °F 33% 29.92 in - North 16.1 mph - N/A   Clear
5:50 AM 69.8 °F 39.2 °F 33% 29.92 in - North 15.0 mph - N/A   Clear
6:20 AM 68.0 °F 39.2 °F 35% 29.92 in - North 13.8 mph - N/A   Clear
6:50 AM 68.0 °F 39.2 °F 35% 29.92 in - North 15.0 mph - N/A   Clear
7:20 AM 68.0 °F 39.2 °F 35% 29.92 in - North 16.1 mph - N/A   Clear
7:50 AM 69.8 °F 39.2 °F 33% 29.92 in - North 16.1 mph - N/A   Clear
8:20 AM 71.6 °F 39.2 °F 31% 29.92 in - North 16.1 mph - N/A   Clear
8:50 AM 73.4 °F 41.0 °F 31% 29.92 in - North 13.8 mph - N/A   Clear
9:00 AM 73 °F 40 °F 19% 29.95 in 6 mi North 13.8 mph - -  
9:20 AM 75.2 °F 41.0 °F 29% 29.95 in - North 16.1 mph - N/A   Clear
9:50 AM 75.2 °F 39.2 °F 27% 29.95 in - NNE 16.1 mph - N/A   Clear
10:20 AM 77.0 °F 39.2 °F 26% 29.95 in - NNE 16.1 mph - N/A   Clear
10:50 AM 78.8 °F 39.2 °F 24% 29.95 in - North 16.1 mph - N/A   Clear
11:20 AM 80.6 °F 39.2 °F 23% 29.95 in - North 13.8 mph - N/A   Clear
11:50 AM 82.4 °F 37.4 °F 20% 29.95 in - North 11.5 mph - N/A   Clear
12:20 PM 82.4 °F 37.4 °F 20% 29.95 in - North 8.1 mph - N/A   Clear
12:50 PM 84.2 °F 37.4 °F 19% 29.92 in 6.2 mi NW 9.2 mph - N/A   Partly Cloudy
1:20 PM 84.2 °F 44.6 °F 25% 29.92 in 6.2 mi SW 8.1 mph - N/A   Partly Cloudy
1:50 PM 82.4 °F 42.8 °F 25% 29.92 in 6.2 mi SW 10.4 mph - N/A   Partly Cloudy
2:20 PM 82.4 °F 44.6 °F 26% 29.92 in 6.2 mi SW 9.2 mph - N/A   Partly Cloudy
2:50 PM 82.4 °F 46.4 °F 28% 29.92 in 6.2 mi SW 12.7 mph - N/A   Partly Cloudy
3:00 PM 83 °F 47 °F 18% 29.93 in 6 mi SW 12.7 mph - -   Scattered Clouds
3:20 PM 82.4 °F 48.2 °F 30% 29.92 in 6.2 mi SW 13.8 mph - N/A   Partly Cloudy
3:50 PM 82.4 °F 46.4 °F 28% 29.92 in 6.2 mi SW 13.8 mph - N/A   Partly Cloudy
4:20 PM 82.4 °F 46.4 °F 28% 29.92 in 6.2 mi SW 12.7 mph - N/A   Partly Cloudy
4:50 PM 80.6 °F 46.4 °F 30% 29.95 in 6.2 mi SW 11.5 mph - N/A   Partly Cloudy
5:20 PM 80.6 °F 48.2 °F 32% 29.95 in 6.2 mi SSW 10.4 mph - N/A   Partly Cloudy
5:50 PM 80.6 °F 48.2 °F 32% 29.95 in 6.2 mi SSW 8.1 mph - N/A   Partly Cloudy
6:20 PM 78.8 °F 48.2 °F 34% 29.95 in 6.2 mi SSW 6.9 mph - N/A   Partly Cloudy
6:50 PM 75.2 °F 50.0 °F 41% 29.98 in 6.2 mi SSW 5.8 mph - N/A   Partly Cloudy
7:20 PM 73.4 °F 51.8 °F 47% 29.98 in 6.2 mi South 2.3 mph - N/A   Partly Cloudy
7:50 PM 68.0 °F 51.8 °F 56% 29.98 in 6.2 mi East 3.5 mph - N/A   Partly Cloudy
8:20 PM 69.8 °F 51.8 °F 53% 29.98 in 6.2 mi NE 2.3 mph - N/A   Partly Cloudy
8:50 PM 66.2 °F 51.8 °F 60% 29.98 in 6.2 mi ENE 4.6 mph - N/A   Partly Cloudy
9:20 PM 66.2 °F 51.8 °F 60% 29.98 in 6.2 mi NE 4.6 mph - N/A   Partly Cloudy
9:50 PM 64.4 °F 50.0 °F 59% 29.98 in - NNE 4.6 mph - N/A   Clear
10:20 PM 64.4 °F 50.0 °F 59% 29.98 in - ENE 4.6 mph - N/A   Clear
10:50 PM 64.4 °F 51.8 °F 64% 29.98 in - ENE 4.6 mph - N/A   Clear
11:20 PM 62.6 °F 50.0 °F 63% 29.98 in - NE 5.8 mph - N/A   Clear
11:50 PM 60.8 °F 51.8 °F 72% 29.98 in - NNE 5.8 mph - N/A   Clear